Location: ???????
(55.7027°N, 37.3832°E)
Time: 19:04:52
(UTC+00:00)

COSMOS 2455 - Pass Details

Date: 14 April 2026
Orbit: 901 x 907 km, 67.1° (Epoch: 19 May)

Event Time Altitude Azimuth Distance (km) Brightness Sun altitude
Rises 21:03:20 0° 317° (NW) 3,546 6.8 -24.4°
Reaches altitude 10° 21:05:52 10° 314° (NW) 2,601 5.9 -24.4°
Maximum altitude 21:11:47 60° 237° (WSW) 1,038 2.9 -24.5°
Enters shadow 21:12:30 55° 206° (SSW) 1,078 2.9 -24.5°
